Time,TemperatureF,DewpointF,PressureIn,WindDirection,WindDirectionDegrees,WindSpeedMPH,WindSpeedGustMPH,Humidity,HourlyPrecipIn,Conditions,Clouds,dailyrainin,SolarRadiationWatts/m^2,SoftwareType,DateUTC
2013-03-29 00:00:00,32.8,22.3,30.41,West,277,0.0,0.0,65,0.00,,---,0.03,0.00,VWS V14.01,2013-03-29 04:00:00,
2013-03-29 00:06:00,32.7,22.6,30.41,West,277,0.0,0.0,66,0.00,,---,0.00,0.00,VWS V14.01,2013-03-29 04:06:00,
2013-03-29 00:11:00,32.5,22.4,30.41,West,277,0.0,0.0,66,0.00,,---,0.00,0.00,VWS V14.01,2013-03-29 04:11:00,
2013-03-29 00:16:00,32.2,22.1,30.41,West,277,0.0,0.0,66,0.00,,---,0.00,0.00,VWS V14.01,2013-03-29 04:16:00,
2013-03-29 00:21:00,31.9,21.9,30.40,West,277,0.0,0.0,66,0.00,,---,0.00,0.00,VWS V14.01,2013-03-29 04:21:00,
2013-03-29 00:26:00,31.8,21.8,30.41,West,277,0.0,0.0,66,0.00,,---,0.00,0.00,VWS V14.01,2013-03-29 04:26:00,
2013-03-29 00:30:00,31.6,21.9,30.40,West,277,0.0,0.0,67,0.00,,---,0.00,0.00,VWS V14.01,2013-03-29 04:30:00,
2013-03-29 00:32:00,31.6,21.9,30.40,West,277,0.0,0.0,67,0.00,,---,0.00,0.00,VWS V14.01,2013-03-29 04:32:00,
2013-03-29 00:37:00,31.5,22.2,30.41,West,277,0.0,0.0,68,0.00,,---,0.00,0.00,VWS V14.01,2013-03-29 04:37:00,
2013-03-29 00:42:00,31.3,22.0,30.41,West,277,0.0,0.0,68,0.00,,---,0.00,0.00,VWS V14.01,2013-03-29 04:42:00,
2013-03-29 00:47:00,31.2,21.9,30.40,West,277,0.0,0.0,68,0.00,,---,0.00,0.00,VWS V14.01,2013-03-29 04:47:00,
2013-03-29 00:52:00,31.1,21.8,30.40,West,277,0.0,1.0,68,0.00,,---,0.00,0.00,VWS V14.01,2013-03-29 04:52:00,
2013-03-29 00:57:00,31.0,21.7,30.40,West,277,0.0,1.0,68,0.00,,---,0.00,0.00,VWS V14.01,2013-03-29 04:57:00,
2013-03-29 01:00:00,30.8,21.5,30.40,West,277,0.0,1.0,68,0.00,,---,0.00,0.00,VWS V14.01,2013-03-29 05:00:00,
2013-03-29 01:02:00,30.8,21.5,30.40,West,277,0.0,1.0,68,0.00,,---,0.00,0.00,VWS V14.01,2013-03-29 05:02:00,
2013-03-29 01:07:00,30.6,21.6,30.40,West,277,0.0,0.0,69,0.00,,---,0.00,0.00,VWS V14.01,2013-03-29 05:07:00,
2013-03-29 01:12:00,30.5,21.6,30.40,West,277,0.0,0.0,69,0.00,,---,0.00,0.00,VWS V14.01,2013-03-29 05:12:00,
2013-03-29 01:17:00,30.5,21.6,30.41,West,277,0.0,0.0,69,0.00,,---,0.00,0.00,VWS V14.01,2013-03-29 05:17:00,
2013-03-29 01:22:00,30.4,21.8,30.40,West,277,0.0,0.0,70,0.00,,---,0.00,0.00,VWS V14.01,2013-03-29 05:22:00,
2013-03-29 01:27:00,30.4,21.8,30.40,West,277,0.0,0.0,70,0.00,,---,0.00,0.00,VWS V14.01,2013-03-29 05:27:00,
2013-03-29 01:30:00,30.4,21.8,30.41,West,277,0.0,0.0,70,0.00,,---,0.00,0.00,VWS V14.01,2013-03-29 05:30:00,
2013-03-29 01:33:00,30.4,21.8,30.41,West,277,0.0,0.0,70,0.00,,---,0.00,0.00,VWS V14.01,2013-03-29 05:33:00,
2013-03-29 01:38:00,30.4,21.8,30.41,West,277,0.0,0.0,70,0.00,,---,0.00,0.00,VWS V14.01,2013-03-29 05:38:00,
2013-03-29 01:43:00,30.3,21.7,30.41,West,277,0.0,0.0,70,0.00,,---,0.00,0.00,VWS V14.01,2013-03-29 05:43:00,
2013-03-29 01:48:00,30.3,21.7,30.41,West,277,0.0,0.0,70,0.00,,---,0.00,0.00,VWS V14.01,2013-03-29 05:48:00,
2013-03-29 01:53:00,30.3,21.7,30.41,West,277,0.0,0.0,70,0.00,,---,0.00,0.00,VWS V14.01,2013-03-29 05:53:00,
2013-03-29 01:59:00,30.2,21.6,30.41,West,277,0.0,0.0,70,0.00,,---,0.00,0.00,VWS V14.01,2013-03-29 05:59:00,
2013-03-29 02:00:00,30.2,21.6,30.41,West,277,0.0,0.0,70,0.00,,---,0.00,0.00,VWS V14.01,2013-03-29 06:00:00,
2013-03-29 02:04:00,30.2,21.6,30.41,West,277,0.0,0.0,70,0.00,,---,0.00,0.00,VWS V14.01,2013-03-29 06:04:00,
2013-03-29 02:09:00,30.2,21.6,30.41,West,277,0.0,0.0,70,0.00,,---,0.00,0.00,VWS V14.01,2013-03-29 06:09:00,
2013-03-29 02:14:00,30.2,21.6,30.41,West,277,0.0,0.0,70,0.00,,---,0.00,0.00,VWS V14.01,2013-03-29 06:14:00,
2013-03-29 02:19:00,30.2,21.6,30.41,West,277,0.0,0.0,70,0.00,,---,0.00,0.00,VWS V14.01,2013-03-29 06:19:00,
2013-03-29 02:24:00,30.2,21.6,30.41,West,277,0.0,0.0,70,0.00,,---,0.00,0.00,VWS V14.01,2013-03-29 06:24:00,
2013-03-29 02:29:00,30.2,21.6,30.41,West,277,0.0,0.0,70,0.00,,---,0.00,0.00,VWS V14.01,2013-03-29 06:29:00,
2013-03-29 02:30:00,30.2,21.9,30.41,West,277,0.0,0.0,71,0.00,,---,0.00,0.00,VWS V14.01,2013-03-29 06:30:00,
2013-03-29 02:34:00,30.3,22.4,30.41,West,277,0.0,0.0,72,0.00,,---,0.00,0.00,VWS V14.01,2013-03-29 06:34:00,
2013-03-29 02:39:00,30.3,21.7,30.41,West,277,0.0,2.0,70,0.00,,---,0.00,0.00,VWS V14.01,2013-03-29 06:39:00,
2013-03-29 02:44:00,30.3,21.7,30.41,West,277,0.0,2.0,70,0.00,,---,0.00,0.00,VWS V14.01,2013-03-29 06:44:00,
2013-03-29 02:49:00,30.5,21.9,30.41,West,277,0.0,2.0,70,0.00,,---,0.00,0.00,VWS V14.01,2013-03-29 06:49:00,
2013-03-29 02:54:00,30.6,21.6,30.41,West,277,0.0,2.0,69,0.00,,---,0.00,0.00,VWS V14.01,2013-03-29 06:54:00,
2013-03-29 02:59:00,30.7,22.1,30.41,West,277,0.0,2.0,70,0.00,,---,0.00,0.00,VWS V14.01,2013-03-29 06:59:00,
2013-03-29 03:00:00,30.7,22.4,30.41,West,277,0.0,2.0,71,0.00,,---,0.00,0.00,VWS V14.01,2013-03-29 07:00:00,
2013-03-29 03:04:00,30.7,22.4,30.41,West,277,0.0,0.0,71,0.00,,---,0.00,0.00,VWS V14.01,2013-03-29 07:04:00,
2013-03-29 03:09:00,30.7,21.8,30.41,West,277,0.0,1.0,69,0.00,,---,0.00,0.00,VWS V14.01,2013-03-29 07:09:00,
2013-03-29 03:14:00,30.8,21.9,30.41,West,277,0.0,1.0,69,0.00,,---,0.00,0.00,VWS V14.01,2013-03-29 07:14:00,
2013-03-29 03:19:00,30.8,22.5,30.41,West,277,0.0,1.0,71,0.00,,---,0.00,0.00,VWS V14.01,2013-03-29 07:19:00,
2013-03-29 03:25:00,30.8,21.9,30.41,West,277,0.0,1.0,69,0.00,,---,0.00,0.00,VWS V14.01,2013-03-29 07:25:00,
2013-03-29 03:30:00,30.8,21.9,30.41,West,277,0.0,1.0,69,0.00,,---,0.00,0.00,VWS V14.01,2013-03-29 07:30:00,
2013-03-29 03:35:00,30.7,22.1,30.41,West,277,0.0,0.0,70,0.00,,---,0.00,0.00,VWS V14.01,2013-03-29 07:35:00,
2013-03-29 03:40:00,30.6,22.0,30.40,West,277,0.0,0.0,70,0.00,,---,0.00,0.00,VWS V14.01,2013-03-29 07:40:00,
2013-03-29 03:45:00,30.6,21.6,30.40,West,277,0.0,0.0,69,0.00,,---,0.00,0.00,VWS V14.01,2013-03-29 07:45:00,
2013-03-29 03:50:00,30.5,22.2,30.41,West,279,0.0,3.0,71,0.00,,---,0.00,0.00,VWS V14.01,2013-03-29 07:50:00,
2013-03-29 03:55:00,30.3,21.7,30.41,West,279,0.0,3.0,70,0.00,,---,0.00,0.00,VWS V14.01,2013-03-29 07:55:00,
2013-03-29 04:00:00,30.3,22.4,30.40,West,279,0.0,3.0,72,0.00,,---,0.00,0.00,VWS V14.01,2013-03-29 08:00:00,
2013-03-29 04:05:00,30.2,22.6,30.40,West,279,0.0,0.0,73,0.00,,---,0.00,0.00,VWS V14.01,2013-03-29 08:05:00,
2013-03-29 04:10:00,30.1,22.2,30.40,West,279,0.0,0.0,72,0.00,,---,0.00,0.00,VWS V14.01,2013-03-29 08:10:00,
2013-03-29 04:15:00,30.0,21.8,30.40,West,279,0.0,0.0,71,0.00,,---,0.00,0.00,VWS V14.01,2013-03-29 08:15:00,
2013-03-29 04:20:00,30.3,22.0,30.40,West,279,0.0,1.0,71,0.00,,---,0.00,0.00,VWS V14.01,2013-03-29 08:20:00,
2013-03-29 04:25:00,30.5,22.2,30.40,West,279,0.0,1.0,71,0.00,,---,0.00,0.00,VWS V14.01,2013-03-29 08:25:00,
2013-03-29 04:30:00,30.5,22.2,30.40,West,279,0.0,1.0,71,0.00,,---,0.00,0.00,VWS V14.01,2013-03-29 08:30:00,
2013-03-29 04:35:00,30.5,21.9,30.40,West,279,0.0,0.0,70,0.00,,---,0.00,0.00,VWS V14.01,2013-03-29 08:35:00,
2013-03-29 04:40:00,30.5,21.9,30.40,West,279,0.0,0.0,70,0.00,,---,0.00,0.00,VWS V14.01,2013-03-29 08:40:00,
2013-03-29 04:45:00,30.5,21.9,30.40,West,279,0.0,0.0,70,0.00,,---,0.00,0.00,VWS V14.01,2013-03-29 08:45:00,
2013-03-29 04:50:00,30.5,21.9,30.41,West,279,0.0,0.0,70,0.00,,---,0.00,0.00,VWS V14.01,2013-03-29 08:50:00,
2013-03-29 04:55:00,30.5,21.9,30.40,West,279,0.0,0.0,70,0.00,,---,0.00,0.00,VWS V14.01,2013-03-29 08:55:00,
2013-03-29 05:00:00,30.4,21.8,30.40,West,279,0.0,0.0,70,0.00,,---,0.00,0.00,VWS V14.01,2013-03-29 09:00:00,
2013-03-29 05:05:00,30.4,22.1,30.40,West,279,0.0,0.0,71,0.00,,---,0.00,0.00,VWS V14.01,2013-03-29 09:05:00,
2013-03-29 05:10:00,30.4,21.8,30.40,West,279,0.0,1.0,70,0.00,,---,0.00,0.00,VWS V14.01,2013-03-29 09:10:00,
2013-03-29 05:15:00,30.4,21.8,30.40,West,279,0.0,1.0,70,0.00,,---,0.00,0.00,VWS V14.01,2013-03-29 09:15:00,
2013-03-29 05:20:00,30.4,21.8,30.40,West,279,0.0,1.0,70,0.00,,---,0.00,0.00,VWS V14.01,2013-03-29 09:20:00,
2013-03-29 05:26:00,30.3,21.7,30.40,West,279,0.0,1.0,70,0.00,,---,0.00,0.00,VWS V14.01,2013-03-29 09:26:00,
2013-03-29 05:30:00,30.3,21.7,30.40,West,279,0.0,1.0,70,0.00,,---,0.00,0.00,VWS V14.01,2013-03-29 09:30:00,
2013-03-29 05:31:00,30.3,21.7,30.40,West,279,0.0,1.0,70,0.00,,---,0.00,0.00,VWS V14.01,2013-03-29 09:31:00,
2013-03-29 05:36:00,30.3,22.0,30.40,West,279,0.0,0.0,71,0.00,,---,0.00,0.00,VWS V14.01,2013-03-29 09:36:00,
2013-03-29 05:41:00,30.3,22.0,30.40,West,279,0.0,0.0,71,0.00,,---,0.00,0.00,VWS V14.01,2013-03-29 09:41:00,
2013-03-29 05:46:00,30.3,21.7,30.40,West,279,0.0,0.0,70,0.00,,---,0.00,0.00,VWS V14.01,2013-03-29 09:46:00,
2013-03-29 05:51:00,30.2,21.6,30.41,West,279,0.0,0.0,70,0.00,,---,0.00,0.00,VWS V14.01,2013-03-29 09:51:00,
2013-03-29 05:56:00,30.1,21.5,30.40,West,279,0.0,0.0,70,0.00,,---,0.00,0.00,VWS V14.01,2013-03-29 09:56:00,
2013-03-29 06:00:00,30.1,21.5,30.41,West,279,0.0,0.0,70,0.00,,---,0.00,0.00,VWS V14.01,2013-03-29 10:00:00,
2013-03-29 06:01:00,30.1,21.5,30.41,West,279,0.0,0.0,70,0.00,,---,0.00,0.00,VWS V14.01,2013-03-29 10:01:00,
2013-03-29 06:07:00,30.1,21.5,30.41,West,279,0.0,0.0,70,0.00,,---,0.00,0.00,VWS V14.01,2013-03-29 10:07:00,
2013-03-29 06:12:00,30.0,21.4,30.41,West,279,0.0,0.0,70,0.00,,---,0.00,0.00,VWS V14.01,2013-03-29 10:12:00,
2013-03-29 06:17:00,30.0,21.4,30.41,West,279,0.0,0.0,70,0.00,,---,0.00,0.00,VWS V14.01,2013-03-29 10:17:00,
2013-03-29 06:22:00,29.9,21.3,30.41,West,279,0.0,0.0,70,0.00,,---,0.00,0.00,VWS V14.01,2013-03-29 10:22:00,
2013-03-29 06:27:00,29.9,21.7,30.41,West,279,0.0,0.0,71,0.00,,---,0.00,0.00,VWS V14.01,2013-03-29 10:27:00,
2013-03-29 06:30:00,29.8,21.2,30.41,West,279,0.0,0.0,70,0.00,,---,0.00,0.00,VWS V14.01,2013-03-29 10:30:00,
2013-03-29 06:32:00,29.8,21.2,30.41,West,279,0.0,0.0,70,0.00,,---,0.00,0.00,VWS V14.01,2013-03-29 10:32:00,
2013-03-29 06:37:00,29.8,21.6,30.41,West,279,0.0,0.0,71,0.00,,---,0.00,0.00,VWS V14.01,2013-03-29 10:37:00,
2013-03-29 06:42:00,29.7,21.5,30.41,West,279,0.0,0.0,71,0.00,,---,0.00,0.00,VWS V14.01,2013-03-29 10:42:00,
2013-03-29 06:47:00,29.6,21.4,30.42,West,279,0.0,0.0,71,0.00,,---,0.00,0.00,VWS V14.01,2013-03-29 10:47:00,
2013-03-29 06:52:00,29.6,21.7,30.42,West,279,0.0,0.0,72,0.00,,---,0.00,0.00,VWS V14.01,2013-03-29 10:52:00,
2013-03-29 06:57:00,29.4,21.2,30.42,West,279,0.0,0.0,71,0.00,,---,0.00,0.00,VWS V14.01,2013-03-29 10:57:00,
2013-03-29 07:00:00,29.3,21.1,30.42,West,279,0.0,0.0,71,0.00,,---,0.00,0.00,VWS V14.01,2013-03-29 11:00:00,
2013-03-29 07:02:00,29.3,21.1,30.42,West,279,0.0,0.0,71,0.00,,---,0.00,0.00,VWS V14.01,2013-03-29 11:02:00,
2013-03-29 07:08:00,29.3,21.1,30.42,West,279,0.0,0.0,71,0.00,,---,0.00,0.00,VWS V14.01,2013-03-29 11:08:00,
2013-03-29 07:13:00,29.2,21.3,30.42,West,279,0.0,0.0,72,0.00,,---,0.00,0.00,VWS V14.01,2013-03-29 11:13:00,
2013-03-29 07:18:00,29.1,21.2,30.42,West,279,0.0,0.0,72,0.00,,---,0.00,5.00,VWS V14.01,2013-03-29 11:18:00,
2013-03-29 07:23:00,29.0,21.4,30.42,West,279,0.0,0.0,73,0.00,,---,0.00,7.00,VWS V14.01,2013-03-29 11:23:00,
2013-03-29 07:28:00,29.0,21.4,30.43,West,279,0.0,0.0,73,0.00,,---,0.00,9.00,VWS V14.01,2013-03-29 11:28:00,
2013-03-29 07:30:00,28.9,21.4,30.43,West,279,0.0,0.0,73,0.00,,---,0.00,12.00,VWS V14.01,2013-03-29 11:30:00,
2013-03-29 07:33:00,28.9,21.4,30.43,West,279,0.0,0.0,73,0.00,,---,0.00,12.00,VWS V14.01,2013-03-29 11:33:00,
2013-03-29 07:38:00,28.9,21.4,30.43,West,279,0.0,0.0,73,0.00,,---,0.00,14.00,VWS V14.01,2013-03-29 11:38:00,
2013-03-29 07:43:00,28.9,21.4,30.43,West,279,0.0,0.0,73,0.00,,---,0.00,16.00,VWS V14.01,2013-03-29 11:43:00,
2013-03-29 07:48:00,28.9,21.4,30.43,West,279,0.0,0.0,73,0.00,,---,0.00,19.00,VWS V14.01,2013-03-29 11:48:00,
2013-03-29 07:53:00,28.9,21.4,30.43,West,279,0.0,0.0,73,0.00,,---,0.00,21.00,VWS V14.01,2013-03-29 11:53:00,
2013-03-29 07:58:00,28.9,21.7,30.43,West,279,0.0,0.0,74,0.00,,---,0.00,23.00,VWS V14.01,2013-03-29 11:58:00,
2013-03-29 08:00:00,28.9,21.4,30.43,West,279,0.0,0.0,73,0.00,,---,0.00,26.00,VWS V14.01,2013-03-29 12:00:00,
2013-03-29 08:03:00,29.0,21.4,30.43,West,279,0.0,0.0,73,0.00,,---,0.00,26.00,VWS V14.01,2013-03-29 12:03:00,
2013-03-29 08:08:00,29.0,21.4,30.43,West,279,0.0,0.0,73,0.00,,---,0.00,28.00,VWS V14.01,2013-03-29 12:08:00,
2013-03-29 08:13:00,29.1,21.5,30.43,West,279,0.0,0.0,73,0.00,,---,0.00,33.00,VWS V14.01,2013-03-29 12:13:00,
2013-03-29 08:18:00,29.2,21.6,30.43,West,279,0.0,0.0,73,0.00,,---,0.00,33.00,VWS V14.01,2013-03-29 12:18:00,
2013-03-29 08:23:00,29.2,21.6,30.43,West,279,0.0,0.0,73,0.00,,---,0.00,26.00,VWS V14.01,2013-03-29 12:23:00,
2013-03-29 08:28:00,29.3,21.7,30.44,West,279,0.0,0.0,73,0.00,,---,0.00,39.00,VWS V14.01,2013-03-29 12:28:00,
2013-03-29 08:30:00,29.4,22.1,30.44,West,279,0.0,0.0,74,0.00,,---,0.00,88.00,VWS V14.01,2013-03-29 12:30:00,
2013-03-29 08:34:00,29.4,22.1,30.43,West,279,0.0,0.0,74,0.00,,---,0.00,135.00,VWS V14.01,2013-03-29 12:34:00,
2013-03-29 08:39:00,29.6,22.0,30.44,West,279,0.0,0.0,73,0.00,,---,0.00,84.00,VWS V14.01,2013-03-29 12:39:00,
2013-03-29 08:44:00,29.8,22.2,30.44,West,279,0.0,0.0,73,0.00,,---,0.00,97.00,VWS V14.01,2013-03-29 12:44:00,
2013-03-29 08:49:00,30.1,22.5,30.43,West,279,0.0,0.0,73,0.00,,---,0.00,155.00,VWS V14.01,2013-03-29 12:49:00,
2013-03-29 08:54:00,30.4,22.8,30.43,West,279,0.0,0.0,73,0.00,,---,0.00,77.00,VWS V14.01,2013-03-29 12:54:00,
2013-03-29 08:59:00,30.7,23.1,30.43,West,279,0.0,0.0,73,0.00,,---,0.00,72.00,VWS V14.01,2013-03-29 12:59:00,
2013-03-29 09:00:00,30.9,23.0,30.43,West,279,0.0,0.0,72,0.00,,---,0.00,76.00,VWS V14.01,2013-03-29 13:00:00,
2013-03-29 09:04:00,31.0,23.0,30.43,West,279,0.0,0.0,72,0.00,,---,0.00,70.00,VWS V14.01,2013-03-29 13:04:00,
2013-03-29 09:09:00,31.4,23.4,30.43,West,279,0.0,0.0,72,0.00,,---,0.00,76.00,VWS V14.01,2013-03-29 13:09:00,
2013-03-29 09:14:00,31.7,23.7,30.43,West,279,0.0,0.0,72,0.00,,---,0.00,63.00,VWS V14.01,2013-03-29 13:14:00,
2013-03-29 09:19:00,32.2,24.2,30.43,West,279,0.0,1.0,72,0.00,,---,0.00,86.00,VWS V14.01,2013-03-29 13:19:00,
2013-03-29 09:24:00,32.9,24.5,30.43,West,279,2.0,4.0,71,0.00,,---,0.00,330.00,VWS V14.01,2013-03-29 13:24:00,
2013-03-29 09:29:00,33.7,24.6,30.43,West,278,0.0,4.0,69,0.00,,---,0.00,279.00,VWS V14.01,2013-03-29 13:29:00,
2013-03-29 09:30:00,34.2,25.1,30.43,SSE,158,3.0,4.0,69,0.00,,---,0.00,230.00,VWS V14.01,2013-03-29 13:30:00,
2013-03-29 09:34:00,34.4,25.0,30.43,SSE,167,0.0,3.0,68,0.00,,---,0.00,241.00,VWS V14.01,2013-03-29 13:34:00,
2013-03-29 09:39:00,35.1,25.3,30.43,SSE,167,0.0,3.0,67,0.00,,---,0.00,262.00,VWS V14.01,2013-03-29 13:39:00,
2013-03-29 09:44:00,35.6,25.0,30.43,West,265,1.0,4.0,65,0.00,,---,0.00,459.00,VWS V14.01,2013-03-29 13:44:00,
2013-03-29 09:49:00,36.6,25.2,30.43,SSW,192,1.0,4.0,63,0.00,,---,0.00,475.00,VWS V14.01,2013-03-29 13:49:00,
2013-03-29 09:54:00,37.7,25.9,30.43,West,278,3.0,5.0,62,0.00,,---,0.00,492.00,VWS V14.01,2013-03-29 13:54:00,
2013-03-29 09:59:00,38.5,25.8,30.43,West,278,2.0,5.0,60,0.00,,---,0.00,512.00,VWS V14.01,2013-03-29 13:59:00,
2013-03-29 10:00:00,39.0,25.5,30.43,SSE,160,0.0,5.0,58,0.00,,---,0.00,522.00,VWS V14.01,2013-03-29 14:00:00,
2013-03-29 10:04:00,39.2,26.5,30.43,WNW,288,0.0,4.0,60,0.00,,---,0.00,527.00,VWS V14.01,2013-03-29 14:04:00,
2013-03-29 10:09:00,40.0,26.0,30.43,WNW,288,0.0,4.0,57,0.00,,---,0.00,543.00,VWS V14.01,2013-03-29 14:09:00,
2013-03-29 10:14:00,40.8,26.8,30.44,SW,230,2.0,6.0,57,0.00,,---,0.00,561.00,VWS V14.01,2013-03-29 14:14:00,
2013-03-29 10:20:00,41.5,27.0,30.43,North,5,3.0,6.0,56,0.00,,---,0.00,578.00,VWS V14.01,2013-03-29 14:20:00,
2013-03-29 10:25:00,41.8,26.4,30.44,North,360,0.0,6.0,54,0.00,,---,0.00,591.00,VWS V14.01,2013-03-29 14:25:00,
2013-03-29 10:30:00,42.3,26.4,30.44,West,279,0.0,6.0,53,0.00,,---,0.00,608.00,VWS V14.01,2013-03-29 14:30:00,
2013-03-29 10:35:00,42.9,27.4,30.44,WSW,248,6.0,6.0,54,0.00,,---,0.00,624.00,VWS V14.01,2013-03-29 14:35:00,
2013-03-29 10:40:00,43.2,26.8,30.44,SW,222,0.0,7.0,52,0.00,,---,0.00,640.00,VWS V14.01,2013-03-29 14:40:00,
2013-03-29 10:45:00,43.6,27.1,30.44,WNW,293,0.0,7.0,52,0.00,,---,0.00,657.00,VWS V14.01,2013-03-29 14:45:00,
2013-03-29 10:50:00,44.1,27.1,30.43,NNW,329,0.0,7.0,51,0.00,,---,0.00,675.00,VWS V14.01,2013-03-29 14:50:00,
2013-03-29 10:55:00,44.4,27.4,30.43,NNW,331,0.0,7.0,51,0.00,,---,0.00,654.00,VWS V14.01,2013-03-29 14:55:00,
2013-03-29 11:00:00,44.7,26.7,30.43,WSW,242,5.0,7.0,49,0.00,,---,0.00,650.00,VWS V14.01,2013-03-29 15:00:00,
2013-03-29 11:05:00,45.3,26.8,30.42,West,263,0.0,4.0,48,0.00,,---,0.00,691.00,VWS V14.01,2013-03-29 15:05:00,
2013-03-29 11:10:00,45.6,26.0,30.43,SW,225,3.0,5.0,46,0.00,,---,0.00,707.00,VWS V14.01,2013-03-29 15:10:00,
2013-03-29 11:15:00,45.3,26.3,30.43,South,186,2.0,5.0,47,0.00,,---,0.00,738.00,VWS V14.01,2013-03-29 15:15:00,
2013-03-29 11:20:00,44.9,26.4,30.43,WSW,244,3.0,5.0,48,0.00,,---,0.00,740.00,VWS V14.01,2013-03-29 15:20:00,
2013-03-29 11:25:00,45.1,25.6,30.43,South,179,0.0,7.0,46,0.00,,---,0.00,742.00,VWS V14.01,2013-03-29 15:25:00,
2013-03-29 11:30:00,45.1,25.6,30.42,WNW,303,0.0,7.0,46,0.00,,---,0.00,761.00,VWS V14.01,2013-03-29 15:30:00,
2013-03-29 11:35:00,46.5,27.9,30.42,West,263,0.0,4.0,48,0.00,,---,0.00,761.00,VWS V14.01,2013-03-29 15:35:00,
2013-03-29 11:40:00,47.4,25.5,30.42,West,281,1.0,7.0,42,0.00,,---,0.00,795.00,VWS V14.01,2013-03-29 15:40:00,
2013-03-29 11:45:00,47.8,26.4,30.42,West,269,1.0,7.0,43,0.00,,---,0.00,791.00,VWS V14.01,2013-03-29 15:45:00,
2013-03-29 11:51:00,48.7,26.1,30.41,West,261,0.0,7.0,41,0.00,,---,0.00,817.00,VWS V14.01,2013-03-29 15:51:00,
2013-03-29 11:56:00,49.1,25.8,30.41,NNW,339,0.0,7.0,40,0.00,,---,0.00,867.00,VWS V14.01,2013-03-29 15:56:00,
2013-03-29 12:00:00,49.1,24.0,30.41,WNW,291,0.0,11.0,37,0.00,,---,0.00,744.00,VWS V14.01,2013-03-29 16:00:00,
2013-03-29 12:01:00,49.2,24.7,30.41,West,263,5.0,11.0,38,0.00,,---,0.00,712.00,VWS V14.01,2013-03-29 16:01:00,
2013-03-29 12:06:00,49.1,24.6,30.41,NW,304,2.0,4.0,38,0.00,,---,0.00,844.00,VWS V14.01,2013-03-29 16:06:00,
2013-03-29 12:11:00,49.1,23.3,30.41,North,355,0.0,6.0,36,0.00,,---,0.00,729.00,VWS V14.01,2013-03-29 16:11:00,
2013-03-29 12:16:00,49.1,22.0,30.41,WNW,296,2.0,8.0,34,0.00,,---,0.00,765.00,VWS V14.01,2013-03-29 16:16:00,
2013-03-29 12:21:00,49.5,23.0,30.40,NW,308,4.0,8.0,35,0.00,,---,0.00,788.00,VWS V14.01,2013-03-29 16:21:00,
2013-03-29 12:26:00,49.4,22.9,30.40,West,261,5.0,8.0,35,0.00,,---,0.00,756.00,VWS V14.01,2013-03-29 16:26:00,
2013-03-29 12:30:00,49.7,23.2,30.40,NW,304,0.0,8.0,35,0.00,,---,0.00,851.00,VWS V14.01,2013-03-29 16:30:00,
2013-03-29 12:31:00,49.6,22.4,30.40,West,272,0.0,8.0,34,0.00,,---,0.00,814.00,VWS V14.01,2013-03-29 16:31:00,
2013-03-29 12:37:00,50.0,23.4,30.40,WNW,300,5.0,6.0,35,0.00,,---,0.00,603.00,VWS V14.01,2013-03-29 16:37:00,
2013-03-29 12:42:00,50.3,23.0,30.40,WSW,257,1.0,7.0,34,0.00,,---,0.00,443.00,VWS V14.01,2013-03-29 16:42:00,
2013-03-29 12:47:00,49.9,21.2,30.39,WSW,252,6.0,9.0,32,0.00,,---,0.00,420.00,VWS V14.01,2013-03-29 16:47:00,
2013-03-29 12:52:00,49.3,21.4,30.39,West,263,3.0,9.0,33,0.00,,---,0.00,638.00,VWS V14.01,2013-03-29 16:52:00,
2013-03-29 12:57:00,49.1,21.3,30.39,WSW,252,5.0,9.0,33,0.00,,---,0.00,529.00,VWS V14.01,2013-03-29 16:57:00,
2013-03-29 13:00:00,49.1,20.5,30.39,West,260,10.0,14.0,32,0.00,,---,0.00,680.00,VWS V14.01,2013-03-29 17:00:00,
2013-03-29 13:02:00,49.1,20.5,30.39,WSW,252,7.0,14.0,32,0.00,,---,0.00,680.00,VWS V14.01,2013-03-29 17:02:00,
2013-03-29 13:07:00,49.2,19.9,30.38,WNW,288,0.0,10.0,31,0.00,,---,0.00,830.00,VWS V14.01,2013-03-29 17:07:00,
2013-03-29 13:12:00,50.1,20.7,30.38,WNW,293,0.0,11.0,31,0.00,,---,0.00,837.00,VWS V14.01,2013-03-29 17:12:00,
2013-03-29 13:30:00,49.3,18.4,30.37,WSW,248,5.0,14.0,29,0.00,,---,0.00,669.00,VWS V14.01,2013-03-29 17:30:00,
2013-03-29 14:00:00,50.9,19.8,30.36,West,270,4.0,10.0,29,0.00,,---,0.00,708.00,VWS V14.01,2013-03-29 18:00:00,
2013-03-29 14:30:00,50.2,19.2,30.35,WSW,248,6.0,17.0,29,0.00,,---,0.00,691.00,VWS V14.01,2013-03-29 18:30:00,
2013-03-29 15:00:00,51.7,21.3,30.33,WSW,248,6.0,14.0,30,0.00,,---,0.00,799.00,VWS V14.01,2013-03-29 19:00:00,
2013-03-29 15:30:00,52.1,22.4,30.32,WSW,248,5.0,13.0,31,0.00,,---,0.00,790.00,VWS V14.01,2013-03-29 19:30:00,
2013-03-29 16:00:00,52.4,23.4,30.31,WSW,248,6.0,14.0,32,0.00,,---,0.00,712.00,VWS V14.01,2013-03-29 20:00:00,
2013-03-29 16:30:00,52.7,24.4,30.30,WSW,248,5.0,14.0,33,0.00,,---,0.00,652.00,VWS V14.01,2013-03-29 20:30:00,
2013-03-29 17:00:00,52.8,23.8,30.30,WSW,248,5.0,13.0,32,0.00,,---,0.00,560.00,VWS V14.01,2013-03-29 21:00:00,
2013-03-29 17:30:00,52.3,23.3,30.30,WSW,248,4.0,14.0,32,0.00,,---,0.00,492.00,VWS V14.01,2013-03-29 21:30:00,
2013-03-29 18:00:00,52.2,23.2,30.29,WSW,248,4.0,11.0,32,0.00,,---,0.00,351.00,VWS V14.01,2013-03-29 22:00:00,
2013-03-29 18:30:00,51.0,22.9,30.29,NW,315,2.0,8.0,33,0.00,,---,0.00,122.00,VWS V14.01,2013-03-29 22:30:00,
2013-03-29 19:00:00,50.6,24.0,30.30,West,270,2.0,8.0,35,0.00,,---,0.00,86.00,VWS V14.01,2013-03-29 23:00:00,
2013-03-29 19:30:00,48.7,23.6,30.30,WSW,248,2.0,10.0,37,0.00,,---,0.00,24.00,VWS V14.01,2013-03-29 23:30:00,
2013-03-29 20:00:00,47.4,23.7,30.30,SW,225,0.0,6.0,39,0.00,,---,0.00,1.00,VWS V14.01,2013-03-30 00:00:00,
2013-03-29 20:30:00,46.6,24.2,30.31,SW,225,0.0,3.0,41,0.00,,---,0.00,0.00,VWS V14.01,2013-03-30 00:30:00,
2013-03-29 21:00:00,45.8,25.1,30.31,SW,225,0.0,3.0,44,0.00,,---,0.00,0.00,VWS V14.01,2013-03-30 01:00:00,
2013-03-29 21:30:00,45.0,25.0,30.32,WSW,248,1.0,4.0,45,0.00,,---,0.00,0.00,VWS V14.01,2013-03-30 01:30:00,
2013-03-29 22:00:00,44.3,25.4,30.33,West,270,0.0,3.0,47,0.00,,---,0.00,0.00,VWS V14.01,2013-03-30 02:00:00,
2013-03-29 22:30:00,43.4,26.0,30.33,West,270,0.0,0.0,50,0.00,,---,0.00,0.00,VWS V14.01,2013-03-30 02:30:00,
2013-03-29 23:00:00,44.3,25.4,30.33,West,270,0.0,3.0,47,0.00,,---,0.00,0.00,VWS V14.01,2013-03-30 03:00:00,
2013-03-29 23:25:00,41.6,26.6,30.33,West,266,0.0,0.0,55,0.00,,---,0.00,0.00,VWS V14.01,2013-03-30 03:25:00,
2013-03-29 23:30:00,41.5,27.0,30.33,West,266,0.0,0.0,56,0.00,,---,0.00,0.00,VWS V14.01,2013-03-30 03:30:00,
2013-03-29 23:35:00,41.3,26.4,30.33,West,266,0.0,0.0,55,0.00,,---,0.00,0.00,VWS V14.01,2013-03-30 03:35:00,
2013-03-29 23:40:00,41.1,26.2,30.33,West,266,0.0,0.0,55,0.00,,---,0.00,0.00,VWS V14.01,2013-03-30 03:40:00,
2013-03-29 23:45:00,40.8,26.3,30.33,West,266,0.0,0.0,56,0.00,,---,0.00,0.00,VWS V14.01,2013-03-30 03:45:00,
2013-03-29 23:50:00,40.5,26.0,30.32,West,266,0.0,0.0,56,0.00,,---,0.00,0.00,VWS V14.01,2013-03-30 03:50:00,
2013-03-29 23:55:00,40.3,26.3,30.33,West,266,0.0,0.0,57,0.00,,---,0.00,0.00,VWS V14.01,2013-03-30 03:55:00,